[[{"header":{"parameterUnit":"m.s-1","parameterCategory":1,"la1":30.2991,"la2":30.254,"lo1":-89.0895,"lo2":-89.0444,"dy":0.0017,"dx":0.0017,"nx":28,"ny":28,"refTime":"2024-06-12T09:00:00:Z","depth":0,"parameterNumber":2,"parameterNumberName":"U-component_of_WINDS"},"data":[0,0,0,0,0,0,0,0,0,0,0,0,0,0,0,0,0,0,0,0,0,0,0,0,0,0,0,0,0,0,0,0,0,0,0,0,0,0,0,0,0,0,0,0,0,0,0,0,0,0,0,0,0,0,0,0,0,0,-2.7264,-2.7264,0,-2.7315,-2.7315,-2.7316,-2.726,-2.7258,-2.7256,-2.7254,-2.7304,-2.7307,-2.731,0,0,0,0,0,0,0,0,0,0,0,0,0,-2.7116,-2.7119,-2.7264,-2.7265,-2.7265,-2.7315,-2.7315,-2.7316,-2.726,-2.7258,-2.7255,-2.7253,-2.7303,-2.7307,-2.7311,0,0,0,0,0,0,0,0,0,0,0,0,0,-2.7175,-2.712,-2.7264,-2.7243,-2.7242,-2.7315,-2.7315,-2.7316,-2.7261,-2.7258,-2.7254,-2.7251,-2.7301,-2.7306,-2.7311,-2.7406,0,0,-2.7326,-2.7329,0,0,0,0,0,0,0,0,-2.7172,-2.718,-2.7246,-2.7245,-2.7243,-2.7278,-2.7282,-2.7346,-2.7262,-2.7254,-2.7253,-2.725,-2.7298,-2.7303,-2.7319,-2.7408,-2.741,-2.7327,-2.733,-2.7332,-2.7333,0,0,0,0,0,0,0,-2.7167,-2.7178,-2.7284,-2.7247,-2.7245,-2.7231,-2.7236,-2.7294,-2.7293,-2.7254,-2.725,-2.7257,-2.7296,-2.7315,-2.732,-2.7411,-2.7327,-2.7331,-2.7334,-2.7336,-2.7579,-2.7582,0,0,0,0,0,0,-2.7166,-2.7175,-2.7282,-2.7285,-2.7199,-2.7236,-2.7241,-2.727,-2.7292,-2.7292,-2.726,-2.7254,-2.7308,-2.7314,-2.7322,-2.7433,-2.7332,-2.7337,-2.734,-2.7576,-2.758,-2.7584,0,0,0,0,0,0,-2.7163,-2.7176,-2.728,-2.7229,-2.7241,-2.7242,-2.7274,-2.7273,-2.7291,-2.7296,-2.7296,-2.7279,-2.7305,-2.7315,-2.7385,-2.7434,-2.7339,-2.7344,-2.7572,-2.7577,-2.7582,-2.7657,0,0,0,0,0,0,-2.7159,-2.7175,-2.7212,-2.723,-2.7244,-2.7344,-2.7277,-2.7276,-2.73,-2.7293,-2.7314,-2.7314,-2.7304,-2.7378,-2.739,-2.7439,-2.7347,-2.7567,-2.7574,-2.758,-2.765,-2.7664,-2.7676,0,0,0,0,0,-2.7154,-2.7231,-2.7214,-2.7227,-2.729,-2.7347,-2.7355,-2.7341,-2.7304,-2.734,-2.7344,-2.7314,-2.7427,-2.7386,-2.7399,-2.745,-2.7564,-2.7572,-2.758,-2.7644,-2.7661,-2.7675,0,0,0,0,0,0,-2.7218,-2.7233,-2.7214,-2.73,-2.7323,-2.7337,-2.7383,-2.736,-2.7393,-2.7386,-2.7367,-2.7372,-2.7447,-2.7456,-2.741,-2.7542,-2.7489,-2.75,-2.7534,-2.755,-2.7562,-2.7558,-2.7352,0,0,0,0,0,-2.7242,-2.7287,-2.7298,-2.7372,-2.7385,-2.7382,-2.7406,-2.7394,-2.7417,-2.7426,-2.7434,-2.7457,-2.7497,-2.7524,-2.7562,-2.7651,-2.7654,-2.7693,-2.7706,-2.7716,-2.7725,-2.7772,-2.7789,-2.7609,-2.7609,-2.7609,0,0,-2.7292,-2.7306,-2.7336,-2.7385,-2.7402,-2.7448,-2.739,-2.7442,-2.7476,-2.7433,-2.75,-2.7508,-2.7531,-2.7612,-2.7647,-2.7621,-2.7776,-2.7726,-2.7735,-2.7738,-2.7781,-2.7798,-2.7814,-2.7614,-2.7613,-2.7613,0,0,-2.7406,-2.7422,-2.7485,-2.7503,-2.7528,-2.7526,-2.7541,-2.7559,-2.7563,-2.763,-2.7598,-2.7638,-2.7709,-2.7726,-2.7745,-2.7866,-2.7839,-2.7879,-2.7946,-2.7992,-2.8006,-2.8018,-2.806,-2.8075,-2.7888,-2.7888,-2.7889,0,-2.7465,-2.7535,-2.752,-2.7575,-2.7597,-2.7561,-2.7624,-2.7641,-2.7677,-2.7693,-2.7663,-2.7751,-2.7764,-2.7847,-2.7877,-2.7893,-2.7909,-2.7876,-2.8005,-2.8017,-2.8029,-2.8068,-2.8084,-2.7893,-2.7892,-2.7892,-2.7892,0,-2.7605,-2.7654,-2.7701,-2.7738,-2.7765,-2.7824,-2.7817,-2.7847,-2.7833,-2.7834,-2.7902,-2.7917,-2.7956,-2.7975,-2.7962,-2.8057,-2.8039,-2.8008,-2.7954,-2.805,-2.8087,-2.8102,-2.79,-2.7898,-2.7897,-2.7895,0,0,-2.776,-2.7788,-2.7805,-2.7821,-2.7846,-2.7883,-2.794,-2.7979,-2.8004,-2.8031,-2.8077,-2.8137,-2.8108,-2.8129,-2.8117,-2.8157,-2.825,-2.812,-2.812,-2.8143,-2.8354,-2.8377,-2.8395,-2.8233,-2.8236,-2.8239,-2.8352,0,-2.7874,-2.7972,-2.7961,-2.8054,-2.8098,-2.8065,-2.8114,-2.8134,-2.8136,-2.8174,-2.8176,-2.8218,-2.8177,-2.8189,-2.8228,-2.8231,-2.8292,-2.8223,-2.8275,-2.8277,-2.8268,-2.8414,-2.8438,-2.8544,-2.8366,-2.8369,-2.837,0,-2.8019,-2.8051,-2.815,-2.8167,-2.8186,-2.823,-2.8264,-2.8301,-2.8323,-2.8322,-2.8345,-2.8326,-2.8382,-2.8328,-2.8403,-2.8356,-2.8377,-2.8382,-2.8385,-2.8388,-2.8328,-2.8419,-2.8578,-2.8593,-2.8393,-2.8391,-2.839,0,-2.8121,-2.8188,-2.8255,-2.827,-2.8293,-2.8325,-2.8336,-2.8355,-2.8379,-2.8409,-2.8424,-2.8461,-2.848,-2.8508,-2.8499,-2.8461,-2.8576,-2.8522,-2.8575,-2.8575,-2.8599,-2.8598,-2.8761,-2.8616,-2.8615,-2.8615,-2.8615,0,-2.8248,-2.8309,-2.8301,-2.8342,-2.8409,-2.8396,-2.8462,-2.8469,-2.8486,-2.8527,-2.8501,-2.8539,-2.8526,-2.8564,-2.8557,-2.8619,-2.8629,-2.8628,-2.8625,-2.863,-2.863,-2.8642,-2.8633,-2.8619,-2.8618,-2.8618,-2.8617,0,-2.8372,-2.8369,-2.844,-2.8456,-2.8462,-2.851,-2.8524,-2.8562,-2.8562,-2.8614,-2.8626,-2.8626,-2.8669,-2.8663,-2.8711,-2.8707,-2.8784,-2.8773,-2.8777,-2.8774,-2.8827,-2.8821,-2.9003,-2.9025,-2.8866,-2.8868,-2.8869,0,-2.8452,-2.8499,-2.852,-2.8546,-2.8559,-2.8602,-2.8626,-2.8614,-2.8641,-2.8669,-2.8704,-2.8745,-2.8777,-2.8847,-2.8851,-2.8887,-2.8876,-2.8937,-2.8881,-2.8884,-2.8875,-2.8871,-2.8875,-2.8948,-2.8949,-2.8951,-2.8952,0,-2.8595,-2.8592,-2.8628,-2.8665,-2.8695,-2.8723,-2.8748,-2.8771,-2.8761,-2.8792,-2.8836,-2.8861,-2.891,-2.8951,-2.8985,-2.8995,-2.8972,-2.897,-2.8984,-2.8988,-2.8987,-2.8986,-2.8805,-2.8965,-2.8964,-2.8963,-2.8962,-2.8962,-2.8699,-2.8738,-2.8759,-2.88,-2.8818,-2.8842,-2.8879,-2.8884,-2.8921,-2.896,-2.8951,-2.9,-2.9021,-2.9064,-2.9078,-2.9116,-2.9093,-2.9114,-2.9119,-2.9124,-2.9129,-2.8983,-2.9122,-2.9122,-2.9122,-2.9121,-2.9121,0,-2.8838,-2.885,-2.8889,-2.8925,-2.8958,-2.8934,-2.8961,-2.8989,-2.9033,-2.9055,-2.9087,-2.9137,-2.9176,-2.9183,-2.922,-2.9249,-2.9239,-2.9259,-2.9256,-2.9258,-2.9148,-2.9131,-2.9266,-2.9266,-2.9266,-2.9266,-2.9266,-2.9266,-2.8915,-2.8979,-2.8978,-2.9051,-2.9062,-2.9111,-2.9128,-2.915,-2.9166,-2.9224,-2.9256,-2.9261,-2.9276,-2.9314,-2.9349,-2.935,-2.9364,-2.9388,-2.9384,-2.9281,-2.9266,-2.9252,-2.9236,-2.9391,-2.9391,-2.9491,-2.9492,-2.9493]},{"header":{"parameterUnit":"m.s-1","parameterCategory":1,"la1":30.2991,"la2":30.254,"lo1":-89.0895,"lo2":-89.0444,"dy":0.0017,"dx":0.0017,"nx":28,"ny":28,"refTime":"2024-06-12T09:00:00:Z","depth":0,"parameterNumber":3,"parameterNumberName":"V-component_of_WINDS"},"data":[0,0,0,0,0,0,0,0,0,0,0,0,0,0,0,0,0,0,0,0,0,0,0,0,0,0,0,0,0,0,0,0,0,0,0,0,0,0,0,0,0,0,0,0,0,0,0,0,0,0,0,0,0,0,0,0,0,0,-3.4138,-3.4139,0,-3.4235,-3.4236,-3.4237,-3.4221,-3.422,-3.4218,-3.4216,-3.4313,-3.4316,-3.4321,0,0,0,0,0,0,0,0,0,0,0,0,0,-3.3935,-3.3939,-3.4138,-3.4139,-3.414,-3.4235,-3.4236,-3.4237,-3.4222,-3.422,-3.4218,-3.4216,-3.4311,-3.4316,-3.4321,0,0,0,0,0,0,0,0,0,0,0,0,0,-3.4027,-3.394,-3.4138,-3.4144,-3.4146,-3.4234,-3.4236,-3.4238,-3.4222,-3.422,-3.4217,-3.4215,-3.431,-3.4316,-3.4322,-3.4409,0,0,-3.434,-3.4343,0,0,0,0,0,0,0,0,-3.4022,-3.4034,-3.4142,-3.4144,-3.4146,-3.4214,-3.42,-3.4295,-3.4223,-3.4193,-3.4216,-3.4214,-3.4281,-3.429,-3.4313,-3.4414,-3.4418,-3.4341,-3.4345,-3.4347,-3.4349,0,0,0,0,0,0,0,-3.4015,-3.403,-3.4176,-3.4143,-3.4146,-3.4141,-3.4151,-3.4218,-3.425,-3.4195,-3.4194,-3.4206,-3.4282,-3.4307,-3.4315,-3.4419,-3.4341,-3.4346,-3.435,-3.4352,-3.4595,-3.4598,0,0,0,0,0,0,-3.4008,-3.4025,-3.4173,-3.4179,-3.4076,-3.4146,-3.4158,-3.4194,-3.4249,-3.4255,-3.4208,-3.4205,-3.4298,-3.4308,-3.4319,-3.4424,-3.4347,-3.4353,-3.4357,-3.4592,-3.4596,-3.4599,0,0,0,0,0,0,-3.4003,-3.4021,-3.4169,-3.4102,-3.412,-3.4152,-3.4193,-3.4197,-3.4223,-3.4259,-3.4264,-3.4229,-3.4296,-3.431,-3.4387,-3.4427,-3.4356,-3.4361,-3.4589,-3.4593,-3.4597,-3.4636,0,0,0,0,0,0,-3.3998,-3.402,-3.4054,-3.4103,-3.4124,-3.4237,-3.4196,-3.4201,-3.4234,-3.4231,-3.4279,-3.4285,-3.4296,-3.4378,-3.4393,-3.4434,-3.4366,-3.4586,-3.4591,-3.4596,-3.4631,-3.4641,-3.4649,0,0,0,0,0,-3.399,-3.4061,-3.4056,-3.4074,-3.4168,-3.424,-3.4252,-3.4263,-3.4237,-3.4272,-3.4295,-3.4284,-3.442,-3.4386,-3.4403,-3.4447,-3.4583,-3.4589,-3.4595,-3.4627,-3.4639,-3.4649,0,0,0,0,0,0,-3.4016,-3.4068,-3.4063,-3.4152,-3.4191,-3.4237,-3.4281,-3.4275,-3.4323,-3.4318,-3.4329,-3.434,-3.4417,-3.444,-3.44,-3.4533,-3.4498,-3.4508,-3.4516,-3.4528,-3.4537,-3.453,-3.4371,0,0,0,0,0,-3.4032,-3.4087,-3.4129,-3.4203,-3.4223,-3.4249,-3.428,-3.4285,-3.4327,-3.4343,-3.4372,-3.4411,-3.4463,-3.4496,-3.4546,-3.4634,-3.4644,-3.4673,-3.4682,-3.4689,-3.4697,-3.4744,-3.4757,-3.4619,-3.4619,-3.4619,0,0,-3.4066,-3.4101,-3.4135,-3.4209,-3.424,-3.4295,-3.4263,-3.4323,-3.4363,-3.4352,-3.4426,-3.4448,-3.4493,-3.4575,-3.4613,-3.4596,-3.4737,-3.4697,-3.4702,-3.4707,-3.4752,-3.4765,-3.4776,-3.4623,-3.4622,-3.4622,0,0,-3.4155,-3.4188,-3.4253,-3.4285,-3.4333,-3.4349,-3.4365,-3.4411,-3.4425,-3.45,-3.4493,-3.454,-3.4629,-3.4661,-3.4689,-3.4788,-3.4779,-3.4804,-3.4851,-3.4897,-3.4907,-3.4917,-3.4952,-3.4964,-3.4812,-3.4812,-3.4813,0,-3.4191,-3.4275,-3.4287,-3.4347,-3.4379,-3.4372,-3.4437,-3.4467,-3.4529,-3.455,-3.4531,-3.4642,-3.4671,-3.476,-3.4784,-3.4808,-3.4824,-3.4799,-3.4905,-3.4915,-3.4924,-3.4957,-3.497,-3.4815,-3.4815,-3.4815,-3.4814,0,-3.4315,-3.4374,-3.442,-3.448,-3.4517,-3.458,-3.4599,-3.4636,-3.4637,-3.4655,-3.473,-3.4765,-3.4821,-3.4843,-3.4845,-3.4932,-3.492,-3.4903,-3.4867,-3.494,-3.4971,-3.4984,-3.4819,-3.4818,-3.4817,-3.4816,0,0,-3.4425,-3.449,-3.4507,-3.4533,-3.4585,-3.463,-3.4691,-3.4746,-3.4776,-3.4818,-3.4869,-3.4944,-3.4928,-3.496,-3.4965,-3.5005,-3.508,-3.4983,-3.4984,-3.4999,-3.5176,-3.5189,-3.5203,-3.5075,-3.5077,-3.5079,-3.5172,0,-3.4518,-3.4628,-3.4639,-3.4736,-3.4789,-3.4782,-3.4835,-3.4872,-3.489,-3.4936,-3.4955,-3.5008,-3.4983,-3.5002,-3.5041,-3.5063,-3.5116,-3.5056,-3.512,-3.5122,-3.5109,-3.522,-3.5233,-3.532,-3.5185,-3.5187,-3.5188,0,-3.4642,-3.4689,-3.4791,-3.4835,-3.4857,-3.4905,-3.4956,-3.5001,-3.5041,-3.5051,-3.5086,-3.5086,-3.5147,-3.5109,-3.5193,-3.5152,-3.5178,-3.5193,-3.5196,-3.5202,-3.516,-3.5228,-3.5348,-3.536,-3.5208,-3.5206,-3.5205,0,-3.471,-3.4798,-3.4871,-3.4894,-3.4947,-3.498,-3.5003,-3.5042,-3.5074,-3.5118,-3.5138,-3.5189,-3.5216,-3.5254,-3.5267,-3.5238,-3.5349,-3.5313,-3.5358,-3.5358,-3.5382,-3.538,-3.5507,-3.54,-3.54,-3.54,-3.5399,0,-3.4814,-3.4876,-3.4902,-3.4947,-3.5016,-3.5028,-3.5096,-3.5117,-3.5151,-3.5198,-3.5195,-3.5239,-3.5253,-3.5299,-3.531,-3.5376,-3.5389,-3.5398,-3.5399,-3.5398,-3.5397,-3.5415,-3.5409,-3.5403,-3.5402,-3.5402,-3.5401,0,-3.4901,-3.4921,-3.5,-3.5043,-3.5055,-3.5104,-3.5141,-3.5183,-3.5199,-3.5259,-3.5274,-3.5299,-3.5353,-3.537,-3.5435,-3.5441,-3.552,-3.5516,-3.5506,-3.5506,-3.555,-3.5546,-3.5693,-3.5712,-3.5593,-3.5594,-3.5595,0,-3.4966,-3.5014,-3.5062,-3.5094,-3.5119,-3.5171,-3.5203,-3.5216,-3.525,-3.5299,-3.5335,-3.5388,-3.5432,-3.5518,-3.5542,-3.5591,-3.5588,-3.5637,-3.5596,-3.5592,-3.5588,-3.5585,-3.5589,-3.5644,-3.5645,-3.5647,-3.5647,0,-3.5078,-3.5085,-3.5133,-3.5184,-3.5223,-3.5264,-3.5303,-3.5329,-3.5347,-3.5385,-3.5441,-3.5475,-3.5541,-3.5593,-3.5643,-3.5665,-3.5659,-3.566,-3.5673,-3.5672,-3.5663,-3.5667,-3.5526,-3.5657,-3.5656,-3.5655,-3.5654,-3.5654,-3.5155,-3.5197,-3.5238,-3.5291,-3.5321,-3.5358,-3.5399,-3.5421,-3.5468,-3.5523,-3.5527,-3.5587,-3.5625,-3.5691,-3.5716,-3.5761,-3.5747,-3.5766,-3.5771,-3.5775,-3.5779,-3.5656,-3.5771,-3.577,-3.577,-3.577,-3.577,0,-3.5266,-3.5291,-3.534,-3.5395,-3.5437,-3.5428,-3.547,-3.5505,-3.5558,-3.5594,-3.5637,-3.57,-3.575,-3.5778,-3.5828,-3.5859,-3.5858,-3.5872,-3.5869,-3.5874,-3.5789,-3.5772,-3.5872,-3.5872,-3.5872,-3.5872,-3.5872,-3.5872,-3.5329,-3.5399,-3.541,-3.5495,-3.552,-3.5579,-3.5604,-3.5636,-3.5665,-3.5736,-3.5778,-3.5796,-3.5828,-3.5881,-3.5926,-3.5933,-3.5951,-3.5967,-3.5972,-3.5891,-3.5881,-3.5871,-3.5855,-3.5971,-3.5971,-3.6053,-3.6054,-3.6055]}]]